Content
SEND FEEDBACK

Daily
Averages
Monthly
Summary
United States of America

ESTILL SPRINGS, TENNESSEE


Home > North America > United States > Tennessee
Elevation: 1053 feet     Latitude: 35 21N     Longitude: 086 12W

WEATHER
 
SELECT A DAY
Number of Records: 65,592;   Date Range: 9/2/10 - 12/27/14
 
SHARE

PRINT THIS DATA

[ ← Previous Day ]
WEATHER ALMANAC - SEPTEMBER 2, 2014
[ Next Day → ]
[ °C ]   °F
Weather ElementAverageHighLow
Temperature78 °F89.6 °F (1:15 pm)69.8 °F (7:35 am)
Dewpoint69.4 °F71.6 °F (12:55 pm)66.2 °F (8:35 am)
Humidity76.3 %94 % (2:55 am)55 % (10:15 am)
Barometer30.07 in30.13 in (8:35 am)29.98 in (2:55 pm)
Wind Speed5.2 mph15 mph (5:35 pm)
Weather ElementAverage
Visibility10 mi
Wind DirectionESE (129.3 °)

Weather ElementTotal
Precipitation---
Cooling Degree Days14.7 (Base 65)
Growing Degree Days29.7 (Base 50)
Averaged from 71 records on September 2, 2014
WEATHER CONDITIONS BREAKOUT
WIND DIRECTION BREAKOUT
WEATHER BY HOUR - SEPTEMBER 2, 2014
[ °C ]   °F
Local TimeTemperatureDewpointHumidityBarometerVisibilityWind DirectionWind SpeedGust SpeedPrecipitationEventsConditions
12:15 AM71.6 °F68.0 °F88 %30.08 in10.0 miCalmClear
12:35 AM71.6 °F69.8 °F94 %30.08 in10.0 miCalmClear
12:55 AM71.6 °F68.0 °F88 %30.08 in10.0 miCalmClear
1:15 AM69.8 °F66.2 °F88 %30.08 in10.0 miCalmClear
1:35 AM71.6 °F68.0 °F88 %30.09 in10.0 miCalmClear
1:55 AM69.8 °F66.2 °F88 %30.09 in10.0 miCalmClear
2:15 AM69.8 °F66.2 °F88 %30.08 in10.0 miCalmClear
2:35 AM69.8 °F68.0 °F94 %30.09 in10.0 miSouth (170°)3.5 mphClear
2:55 AM71.6 °F68.0 °F88 %30.09 in10.0 miSouth (180°)3.5 mphClear
3:15 AM71.6 °F68.0 °F88 %30.10 in10.0 miCalmClear
3:35 AM69.8 °F68.0 °F94 %30.09 in10.0 miCalmClear
3:55 AM71.6 °F68.0 °F88 %30.09 in10.0 miCalmClear
4:15 AM71.6 °F68.0 °F88 %30.09 in10.0 miCalmClear
4:35 AM69.8 °F68.0 °F94 %30.09 in10.0 miCalmClear
4:55 AM69.8 °F66.2 °F88 %30.09 in10.0 miCalmClear
5:15 AM69.8 °F66.2 °F88 %30.10 in10.0 miSouth (190°)3.5 mphClear
5:35 AM69.8 °F68.0 °F94 %30.11 in10.0 miSW (220°)4.6 mphClear
5:55 AM69.8 °F68.0 °F94 %30.10 in10.0 miSSW (200°)4.6 mphClear
6:15 AM69.8 °F66.2 °F88 %30.11 in10.0 miCalmClear
6:35 AM69.8 °F66.2 °F88 %30.12 in10.0 miCalmClear
6:55 AM69.8 °F66.2 °F88 %30.12 in10.0 miCalmClear
7:15 AM71.6 °F68.0 °F88 %30.13 in10.0 miCalmClear
7:35 AM73.4 °F69.8 °F88 %30.13 in8.0 miCalmClear
7:55 AM75.2 °F69.8 °F83 %30.12 in10.0 miSSW (200°)4.6 mphClear
8:15 AM77.0 °F69.8 °F78 %30.12 in10.0 miSW (230°)6.9 mphClear
8:35 AM78.8 °F69.8 °F74 %30.11 in10.0 miSW (220°)5.8 mphClear
8:55 AM80.6 °F71.6 °F74 %30.12 in10.0 miWSW (240°)8.1 mphClear
9:15 AM80.6 °F71.6 °F74 %30.12 in10.0 miWSW (250°)9.2 mphClear
9:35 AM80.6 °F71.6 °F74 %30.11 in10.0 miSW (220°)10.4 mphClear
9:55 AM82.4 °F71.6 °F70 %30.12 in10.0 miSW (220°)8.1 mphClear
10:15 AM82.4 °F71.6 °F70 %30.12 in10.0 miSW (230°)8.1 mphClear
10:35 AM82.4 °F71.6 °F70 %30.11 in10.0 miSSW (200°)11.5 mphPartly Cloudy
10:55 AM84.2 °F71.6 °F66 %30.11 in10.0 miSW (230°)10.4 mphPartly Cloudy
11:15 AM84.2 °F71.6 °F66 %30.10 in10.0 miSW (220°)10.4 mphScattered Clouds
11:35 AM84.2 °F71.6 °F66 %30.10 in10.0 miSW (220°)9.2 mphPartly Cloudy
11:55 AM86.0 °F71.6 °F62 %30.10 in10.0 miSW (220°)11.5 mphScattered Clouds
12:15 PM84.2 °F69.8 °F62 %30.10 in10.0 miSW (220°)10.4 mphScattered Clouds
12:35 PM87.8 °F71.6 °F58 %30.08 in10.0 miSSW (200°)8.1 mphPartly Cloudy
12:55 PM87.8 °F69.8 °F55 %30.07 in10.0 miSSW (200°)10.4 mphPartly Cloudy
1:15 PM87.8 °F71.6 °F58 %30.07 in10.0 miSW (220°)12.7 mphPartly Cloudy
1:35 PM87.8 °F69.8 °F55 %30.06 in10.0 miSW (220°)9.2 mphPartly Cloudy
1:55 PM89.6 °F71.6 °F55 %30.06 in10.0 miSW (220°)9.2 mphPartly Cloudy
2:15 PM87.8 °F69.8 °F55 %30.05 in10.0 miSW (220°)12.7 mphPartly Cloudy
2:35 PM87.8 °F69.8 °F55 %30.04 in10.0 miSW (230°)11.5 mphScattered Clouds
2:55 PM87.8 °F69.8 °F55 %30.02 in10.0 miSW (230°)10.4 mphPartly Cloudy
3:15 PM87.8 °F69.8 °F55 %30.01 in10.0 miSW (230°)15.0 mphScattered Clouds
3:35 PM87.8 °F69.8 °F55 %30.01 in10.0 miSSW (210°)15.0 mphPartly Cloudy
3:55 PM87.8 °F69.8 °F55 %30.00 in10.0 miSSW (210°)12.7 mphPartly Cloudy
4:15 PM87.8 °F69.8 °F55 %29.99 in10.0 miSSW (210°)13.8 mphPartly Cloudy
4:35 PM87.8 °F71.6 °F58 %29.98 in10.0 miSSW (210°)9.2 mphPartly Cloudy
4:55 PM86.0 °F69.8 °F58 %29.98 in10.0 miSSW (210°)8.1 mphClear
5:15 PM86.0 °F69.8 °F58 %29.98 in10.0 miSW (220°)9.2 mphScattered Clouds
5:55 PM84.2 °F69.8 °F62 %29.98 in10.0 miSW (220°)5.8 mphClear
6:15 PM84.2 °F69.8 °F62 %29.99 in10.0 miSW (220°)6.9 mphClear
6:35 PM82.4 °F71.6 °F70 %29.99 in10.0 miSW (220°)5.8 mphMostly Cloudy
6:55 PM80.6 °F69.8 °F70 %30.00 in10.0 miSW (230°)9.2 mphPartly Cloudy
7:15 PM80.6 °F69.8 °F70 %30.01 in10.0 miSW (220°)13.8 mphScattered Clouds
7:35 PM78.8 °F69.8 °F74 %30.01 in10.0 miSSW (210°)6.9 mphPartly Cloudy
7:55 PM75.2 °F69.8 °F83 %30.01 in10.0 miCalmClear
8:15 PM75.2 °F69.8 °F83 %30.01 in10.0 miCalmClear
8:35 PM77.0 °F69.8 °F78 %30.03 in10.0 miEast (90°)4.6 mphClear
8:55 PM75.2 °F69.8 °F83 %30.04 in10.0 miESE (110°)3.5 mphClear
9:15 PM73.4 °F69.8 °F88 %30.05 in10.0 miCalmClear
9:35 PM73.4 °F69.8 °F88 %30.06 in10.0 miCalmClear
9:55 PM73.4 °F69.8 °F88 %30.06 in10.0 miCalmMostly Cloudy
10:15 PM73.4 °F69.8 °F88 %30.07 in10.0 miCalmOvercast
10:35 PM73.4 °F69.8 °F88 %30.06 in10.0 miCalmOvercast
10:55 PM73.4 °F69.8 °F88 %30.07 in10.0 miNNW (340°)3.5 mphOvercast
11:15 PM73.4 °F69.8 °F88 %30.07 in10.0 miCalmOvercast
11:35 PM73.4 °F69.8 °F88 %30.06 in10.0 miCalmOvercast
11:55 PM73.4 °F69.8 °F88 %30.06 in10.0 miCalmScattered Clouds
Hourly data recorded from KTHA, located miles away from Estill Springs, Tennessee







STORIES FROM OUR PARTNERS